Harderwijk, Netherlands
Current Conditions -  °F | °C
As of 2:25 AM on Thursday 27 Nov 2014 (Local Time) from EHDL Reporting Station
Overcast Overcast  
Wind Chill: 37°   Ceiling: 900
Heat Index: 43°   Visibility: 6mi
Dew Point: 39°   Wind: 10mph
Humidity: 87%   Direction: 130°SE
Pressure: 29.83"   Gusts: NA
Location:  52.34°N, 5.62°E
Report Text: EHDL 270125Z AUTO 13009KT 9999 OVC009 06/04 Q1010 GRN
Loading
Personal Weather Stations






























Interactive Weather Map New forecast layout! Learn more

10-Day Weather Forecast

Advertisements
Track Severe Weather on mobile